THORAD AGENA D DEB, 42532

Orbit data source: Space-Track

THORAD AGENA D DEB, 42532 is space debris in SSO originally from a launch on Wed, 08 Apr 1970 UTC launched from the Air Force Western Test Range (AFWTR). Debris objects in space refer to the collection of defunct objects orbiting the Earth. Examples of debris include non-operational satellites, rocket bodies, and fragments generated from explosions, collisions, or faulty payload assembly.

Loading next visibility...
Identifier
42532, 1970-025SN
Orbit
SSO
Country
Flag of USUS
Related business
Manufacturer
Unknown
Mission
Spacecraft
Bus & Motor
Unknown
Mass
Unknown
Launch date (UTC)
1970-04-08 (56 years ago)
Launch vehicle
Unknown
Launch site
Air Force Western Test Range (AFWTR)
Object type
Payload
Rocket body
Debris
Shape & HBR
Unknown shape, 0.1 m
Radar Cross Section
Small (<0.1 m²)

Expand to show TLE details & history
Last TLE update: 11 hours ago

TLE from 11 hours ago
0 THORAD AGENA D DEB
1 42532U 70025SN  25352.03472809  .00001770  00000-0  11911-2 0  9990
2 42532  99.9339 272.1466 0002530  43.7901 316.3462 14.02157676614287
Epoch: 2025-12-18T00:50Z
TLE epoch observation values (Epoch: 2025-12-18T00:50:00.506Z)
Latitude
-0.00003°
Longitude
172.74847°
Altitude
887.852 km
Speed
7.409 km/s
True Right ascension
18h 08m 35s
True Declination
0° 00' 00"
Sunlit
Object was in daylight at epoch
Visualization orbit readout
Latitude
Unknown
Longitude
Unknown
Altitude
Unknown
Speed
Unknown
Apparent Right ascension
Unknown
Apparent Declination
Unknown
Sunlit
N/A
Visualization observer readout
Local Sidereal Time
11:00:11
Azimuth
Unknown
Elevation
Unknown
Doppler factor
Unknown
Orbital elements
Apogee altitude
885.415 km
Perigee altitude
881.74 km
Semi-major axis
7,261.715 km
Eccentricity
0.00025
Inclination
99.9339°
RAAN
272.1466°
Arg. of periapsis
43.7901°
True anomaly
316.32618°
Mean anomaly
316.3462°
Eccentric anomaly
316.33619°
Mean motion
3.50739 °/min
Orbital period
102.64 mins
BSTAR
0.0011911
Loading maneuver chart data...
Computing Atmospheric mass density...

Documentation

Showing up to 5 results
|